Terminal Aerodrome Forecast
Issued by NWS Dodge City, KS

Home | Current Version | Previous Version | Graphics & Text | Print | Product List | Glossary Off
Versions: 1 2 3 4 5 6 7 8 9 10 11 12 13 14 15 16 17 18 19 20 21 22 23 24 25 26 27 28 29 30

000
FTUS43 KDDC 231730
TAFDDC
TAF
KDDC 231730Z 2318/2418 35024G31KT P6SM OVC025
     FM240100 34021G28KT P6SM OVC020
     FM240800 33017G24KT P6SM FEW070 FEW250
     FM241200 31013KT P6SM SKC=

USA.gov is the U.S. government's official web portal to all federal, state and local government web resources and services.